This is the latest recevied weather packets stored in our database for station/object WB4YDL. If no packets are shown the sender has not sent any weather packets the latest 10 day(s).
| Time | Temp. | Humidity | Pressure | Rain* | Wind** | Luminosity | Snow |
|---|---|---|---|---|---|---|---|
| 1777566925 | 16.11° C | 48% | 1013.5 hPa | 0 mm | - | 684 W/m² | - |
| 1777566623 | 15.56° C | 45% | 1013.4 hPa | 0 mm | - | 656 W/m² | - |
| 1777566320 | 16.11° C | 46% | 1013.7 hPa | 0 mm | - | 636 W/m² | - |
| 1777566018 | 15.56° C | 46% | 1013.3 hPa | 0 mm | - | 651 W/m² | - |
| 1777565713 | 16.11° C | 47% | 1013.5 hPa | 0 mm | - | 616 W/m² | - |
| 1777565410 | 15.56° C | 49% | 1013.6 hPa | 0 mm | - | 485 W/m² | - |
| 1777565106 | 15.56° C | 53% | 1013.2 hPa | 0 mm | - | 461 W/m² | - |
| 1777564802 | 15° C | 51% | 1013.5 hPa | 0 mm | - | 465 W/m² | - |
| 1777564496 | 15° C | 49% | 1013.2 hPa | 0 mm | - | 526 W/m² | - |
| 1777564192 | 15° C | 47% | 1013.5 hPa | 0 mm | - | 516 W/m² | - |
| 1777563889 | 15° C | 52% | 1013.2 hPa | 0 mm | - | 447 W/m² | - |
| 1777563585 | 15° C | 51% | 1013.3 hPa | 0 mm | - | 477 W/m² | - |
| 1777563279 | 15.56° C | 48% | 1013.1 hPa | 0 mm | - | 471 W/m² | - |
| 1777562976 | 15° C | 51% | 1013.2 hPa | 0 mm | - | 430 W/m² | - |
| 1777562672 | 15° C | 52% | 1013 hPa | 0 mm | - | 559 W/m² | - |
| 1777562372 | 15° C | 49% | 1013.2 hPa | 0 mm | - | 449 W/m² | - |
| 1777562067 | 15.56° C | 52% | 1012.9 hPa | 0 mm | - | 501 W/m² | - |
| 1777561765 | 15° C | 54% | 1013.1 hPa | 0 mm | - | 543 W/m² | - |
| 1777561461 | 15° C | 55% | 1013.3 hPa | 0 mm | - | 591 W/m² | - |
| 1777561156 | 15° C | 55% | 1013.5 hPa | 0 mm | - | 518 W/m² | - |
| 1777560851 | 15° C | 55% | 1013.4 hPa | 1.27 mm | - | 464 W/m² | - |
| 1777560549 | 15° C | 56% | 1013.5 hPa | 1.27 mm | - | 457 W/m² | - |
| 1777560247 | 14.44° C | 56% | 1013.4 hPa | 0 mm | - | 455 W/m² | - |
| 1777559944 | 14.44° C | 56% | 1013.3 hPa | 0 mm | - | 454 W/m² | - |
| 1777559643 | 14.44° C | 56% | 1013.3 hPa | 0 mm | - | 437 W/m² | - |
* Rain latest hour (hover to see other rain measurements)
** Current wind speed in m/s (hover to see current wind gust speed)